Date String (YYYY-MM-DD hh:mm:ss) UTC,Instrument flags,Ambient pressure (hPa),Sample flow (lpm),Bypass flow (lpm),Sample temperature (°C),Ambient temperature (°C),ASC tube jacket temperature (°C),LED temperature (°C),Box temperature (°C),Sample RH (%),Mass concentration (μg/m³),Mass concentration (μg/m³)
DateTimeUTC,F1_M11,P_M11,Q1_M11,Q2_M11,T1_M11,T2_M11,T3_M11,T4_M11,T5_M11,U1_M11,X0_M11,X2_M11
2021-08-17 11:00:00,,0825.0,4.99,0.00,30.0,29.2,00.0,39.0,31.9,16.9,0038.68,0025.91
2021-08-17 11:01:00,,0825.1,5.00,0.00,30.0,29.2,00.0,39.0,31.9,16.8,0038.23,0025.84
2021-08-17 11:02:00,,0825.0,4.99,0.00,30.1,29.2,00.0,39.0,31.9,16.8,0037.29,0025.76
2021-08-17 11:03:00,,0825.0,5.00,0.00,30.0,27.8,00.0,39.0,31.5,17.0,0036.87,0025.76
2021-08-17 11:04:00,,0824.9,5.01,0.00,29.8,25.7,00.0,39.0,30.9,17.2,0036.69,0025.78
2021-08-17 11:05:00,,0824.9,4.98,0.00,29.6,25.4,00.0,38.9,30.8,17.2,0036.32,0025.72
2021-08-17 11:06:00,,0824.9,5.02,0.00,29.6,25.8,00.0,38.9,30.9,17.3,0036.27,0025.73
2021-08-17 11:07:00,,0824.9,5.00,0.00,29.5,26.3,00.0,38.8,31.0,17.4,0035.53,0025.66
2021-08-17 11:08:00,,0824.9,4.99,0.00,29.4,26.8,00.0,38.8,31.0,17.5,0035.32,0025.58
2021-08-17 11:09:00,,0824.9,4.99,0.00,29.5,27.2,00.0,38.7,31.1,17.4,0035.25,0025.51
2021-08-17 11:10:00,,0824.9,4.99,0.00,29.5,27.5,00.0,38.7,31.2,17.3,0035.19,0025.49
2021-08-17 11:11:00,,0824.9,5.01,0.00,29.5,27.7,00.0,38.7,31.2,17.2,0036.21,0025.38
2021-08-17 11:12:00,,0824.9,4.98,0.00,29.5,27.9,00.0,38.7,31.3,17.1,0036.58,0025.32
2021-08-17 11:13:00,,0824.9,5.01,0.00,29.5,28.1,00.0,38.7,31.3,17.1,0036.88,0025.28
2021-08-17 11:14:00,,0824.9,4.99,0.00,29.6,28.2,00.0,38.7,31.3,17.0,0036.67,0025.15
2021-08-17 11:15:00,,0824.9,5.02,0.00,29.6,28.3,00.0,38.7,31.4,17.0,0036.56,0025.02
2021-08-17 11:16:00,,0824.9,5.00,0.00,29.6,28.4,00.0,38.7,31.4,17.1,0036.62,0025.02
2021-08-17 11:17:00,,0824.9,5.01,0.00,29.6,28.5,00.0,38.7,31.4,17.1,0036.89,0024.99
2021-08-17 11:18:00,,0824.9,4.99,0.00,29.7,28.5,00.0,38.7,31.5,17.1,0037.21,0024.98
2021-08-17 11:19:00,,0824.9,5.01,0.00,29.7,28.6,00.0,38.7,31.5,17.0,0036.96,0025.02
2021-08-17 11:20:00,,0824.9,4.99,0.00,29.7,28.7,00.0,38.8,31.5,16.9,0036.33,0025.08
2021-08-17 11:21:00,,0824.9,5.01,0.00,29.7,28.7,00.0,38.8,31.6,16.9,0036.37,0025.15
2021-08-17 11:22:00,,0825.0,4.99,0.00,29.8,28.7,00.0,38.8,31.6,16.8,0035.10,0025.19
2021-08-17 11:23:00,,0825.0,5.01,0.00,29.8,28.8,00.0,38.8,31.6,16.7,0035.08,0025.27
2021-08-17 11:24:00,,0825.0,5.01,0.00,29.8,28.9,00.0,38.8,31.6,16.7,0035.52,0025.34
2021-08-17 11:25:00,,0825.0,5.00,0.00,29.8,28.9,00.0,38.8,31.7,16.7,0036.05,0025.36
2021-08-17 11:26:00,,0825.0,4.99,0.00,29.9,28.9,00.0,38.8,31.7,16.8,0037.19,0025.40
2021-08-17 11:27:00,,0825.0,5.01,0.00,29.9,29.0,00.0,38.9,31.7,16.8,0037.76,0025.39
2021-08-17 11:28:00,,0825.0,4.98,0.00,29.9,29.0,00.0,38.9,31.8,16.8,0037.88,0025.41
2021-08-17 11:29:00,,0825.0,5.02,0.00,29.9,29.1,00.0,38.9,31.8,16.8,0037.59,0025.39
2021-08-17 11:30:00,,0825.0,4.99,0.00,30.0,29.1,00.0,38.9,31.8,16.7,0038.01,0025.44
2021-08-17 11:31:00,,0825.0,5.01,0.00,30.0,29.1,00.0,39.0,31.8,16.7,0038.95,0025.42
2021-08-17 11:32:00,,0825.0,5.00,0.00,30.0,29.1,00.0,39.0,31.9,16.7,0038.74,0025.37
2021-08-17 11:33:00,,0824.9,4.99,0.00,30.0,29.2,00.0,39.0,31.9,16.7,0039.46,0025.37
2021-08-17 11:34:00,,0824.9,5.01,0.00,30.0,29.2,00.0,39.0,31.9,16.6,0039.18,0025.32
2021-08-17 11:35:00,,0824.9,4.99,0.00,30.1,29.2,00.0,39.1,31.9,16.6,0038.16,0025.30
2021-08-17 11:36:00,,0824.9,5.01,0.00,30.1,29.2,00.0,39.1,31.9,16.7,0037.89,0025.33
2021-08-17 11:37:00,,0824.9,4.99,0.00,30.1,29.3,00.0,39.1,32.0,16.7,0036.79,0025.33
2021-08-17 11:38:00,,0824.9,5.00,0.00,30.1,28.2,00.0,39.1,31.7,16.7,0036.23,0025.35
2021-08-17 11:39:00,,0824.9,5.00,0.00,29.9,26.5,00.0,39.1,31.2,16.9,0036.01,0025.30
2021-08-17 11:40:00,,0824.9,5.00,0.00,29.8,26.4,00.0,39.0,31.1,17.0,0036.25,0025.31
2021-08-17 11:41:00,,0824.9,5.00,0.00,29.7,26.7,00.0,39.0,31.2,17.1,0036.23,0025.21
2021-08-17 11:42:00,,0824.9,5.00,0.00,29.7,27.1,00.0,38.9,31.2,17.5,0037.13,0025.06
2021-08-17 11:43:00,,0824.9,4.99,0.00,29.7,27.5,00.0,38.9,31.3,17.2,0036.87,0024.95
2021-08-17 11:44:00,,0824.9,5.00,0.00,29.7,27.8,00.0,38.9,31.4,17.1,0035.94,0024.86
2021-08-17 11:45:00,,0824.9,5.01,0.00,29.7,28.0,00.0,38.9,31.4,17.2,0036.25,0024.78
2021-08-17 11:46:00,,0824.9,4.99,0.00,29.7,28.2,00.0,38.9,31.4,17.1,0036.58,0024.72
2021-08-17 11:47:00,,0824.9,5.01,0.00,29.7,28.3,00.0,38.9,31.5,17.1,0036.54,0024.63
2021-08-17 11:48:00,,0824.9,4.99,0.00,29.7,28.5,00.0,38.9,31.5,17.2,0036.78,0024.56
2021-08-17 11:49:00,,0824.9,4.99,0.00,29.8,28.6,00.0,38.9,31.6,17.2,0036.81,0024.42
2021-08-17 11:50:00,,0824.9,5.01,0.00,29.8,28.7,00.0,38.9,31.6,17.3,0036.49,0024.28
2021-08-17 11:51:00,,0824.9,5.00,0.00,29.8,28.7,00.0,38.9,31.6,17.5,0036.26,0024.10
2021-08-17 11:52:00,,0824.9,5.01,0.00,29.8,28.8,00.0,38.9,31.7,17.5,0035.55,0023.92
2021-08-17 11:53:00,,0824.9,4.99,0.00,29.9,28.9,00.0,38.9,31.7,17.1,0033.20,0023.78
2021-08-17 11:54:00,,0824.9,5.00,0.00,29.9,28.9,00.0,38.9,31.7,17.5,0033.51,0023.72
2021-08-17 11:55:00,,0824.9,5.01,0.00,29.9,29.0,00.0,39.0,31.7,17.3,0034.46,0023.68
2021-08-17 11:56:00,,0824.9,5.00,0.00,29.9,29.0,00.0,39.0,31.8,17.1,0034.19,0023.60
2021-08-17 11:57:00,,0824.9,5.01,0.00,30.0,29.1,00.0,39.0,31.8,17.4,0033.76,0023.54
2021-08-17 11:58:00,,0824.9,4.99,0.00,30.0,29.1,00.0,39.0,31.8,17.5,0033.85,0023.51
2021-08-17 11:59:00,,0824.9,5.01,0.00,30.0,29.1,00.0,39.0,31.9,17.4,0034.29,0023.45
